CW0351 Weather Reports


time (UTC)temp
C
wind
direction
speed
KPH
gust
KPH
rain 1hr
cm
rain 24hr
cm
rain mn
cm
humidity
%
barometer
mb
20260504190054 21 242 6.4 20.9 0.00 0.00 0.00 34 1010.4
20260504184600 21 225 3.2 22.5 0.00 0.00 0.00 29 1010.7
20260504183051 21 242 6.4 19.3 0.00 0.00 0.00 30 1011.0
20260504181553 21 0 3.2 20.9 0.00 0.00 0.00 35 1011.0
20260504180055 20 202 6.4 20.9 0.00 0.00 0.00 33 1011.4
20260504174556 21 0 6.4 19.3 0.00 0.00 0.00 34 1011.6
20260504173100 20 208 4.8 20.9 0.00 0.00 0.00 34 1011.8
20260504171556 20 268 3.2 24.1 0.00 0.00 0.00 37 1012.0
20260504160106 18 212 4.8 17.7 0.00 0.00 0.00 36 1013.0
20260504081552 4 0 0.0 0.0 0.00 0.00 0.00 75 1014.4
20260504044554 6 0 0.0 0.0 0.00 0.00 0.00 63 1014.3
20260504043058 6 0 0.0 0.0 0.00 0.00 0.00 62 1014.2
20260504041554 6 0 0.0 0.0 0.00 0.00 0.00 61 1014.0
20260504040053 6 0 0.0 0.0 0.00 0.00 0.00 60 1013.8
20260504034554 6 0 0.0 0.0 0.00 0.00 0.00 59 1013.8
20260504033054 7 0 0.0 0.0 0.00 0.00 0.00 58 1013.7
20260504031551 7 0 0.0 0.0 0.00 0.00 0.00 58 1013.7
20260504030052 7 0 0.0 0.0 0.00 0.00 0.00 58 1013.5
20260504024553 7 0 0.0 0.0 0.00 0.00 0.00 59 1013.6
20260504023057 7 0 0.0 0.0 0.00 0.00 0.00 58 1013.6
20260504021555 7 0 0.0 0.0 0.00 0.00 0.00 55 1013.7
20260504020127 8 0 0.0 0.0 0.00 0.00 0.00 53 1013.5
20260504014601 8 0 0.0 0.0 0.00 0.00 0.00 53 1013.4
20260504013105 8 0 0.0 0.0 0.00 0.00 0.00 50 1013.5
20260504011553 9 0 0.0 0.0 0.00 0.00 0.00 47 1013.3
20260504010051 10 0 0.0 0.0 0.00 0.00 0.00 45 1013.0
20260504004623 11 0 0.0 0.0 0.00 0.00 0.00 42 1012.9
20260504003059 11 0 0.0 0.0 0.00 0.00 0.00 40 1012.7
20260504001619 12 0 0.0 3.2 0.00 0.00 0.00 40 1012.5
20260504000101 12 0 0.0 6.4 0.00 0.00 0.00 37 1012.4
20260503234604 13 0 0.0 4.8 0.00 0.00 0.00 34 1012.2
20260503233052 13 0 0.0 11.3 0.00 0.00 0.00 32 1012.2
20260503231550 13 0 0.0 17.7 0.00 0.00 0.00 32 1012.2
20260503230110 14 0 0.0 17.7 0.00 0.00 0.00 32 1011.9
20260503224556 14 227 1.6 11.3 0.00 0.00 0.00 31 1012.1
20260503223051 14 0 3.2 17.7 0.00 0.00 0.00 28 1012.0
20260503221603 15 0 3.2 20.9 0.00 0.00 0.00 27 1011.9
20260503220055 15 0 1.6 14.5 0.00 0.00 0.00 27 1011.8
20260503214600 16 225 0.0 12.9 0.00 0.00 0.00 27 1011.8
20260503213053 15 322 1.6 29.0 0.00 0.00 0.00 30 1011.8
20260503211556 15 0 0.0 12.9 0.00 0.00 0.00 31 1011.8
20260503210051 15 0 0.0 16.1 0.00 0.00 0.00 30 1011.9
20260503204554 15 297 6.4 25.7 0.00 0.00 0.00 27 1012.0
20260503203108 15 25 4.8 22.5 0.00 0.00 0.00 29 1012.0
20260503201555 15 211 6.4 24.1 0.00 0.00 0.00 29 1012.0
20260503200052 15 146 3.2 12.9 0.00 0.00 0.00 39 1012.2
20260503194557 15 262 3.2 17.7 0.00 0.00 0.00 33 1012.2
20260503193055 15 0 4.8 24.1 0.00 0.00 0.00 36 1012.3
20260503191553 15 0 6.4 24.1 0.00 0.00 0.00 30 1012.4